This demonstration page uses our WeatherBlox Daily Observations layout. Learn more.

Left ArrowRight Arrow

Hourly Observations for February 26, 2017

Temp ( °F °C ) Dew Point ( °F °C ) Humidity (%) Winds ( mph kmh ) Pressure ( in mb ) Visibility ( mi km ) Precip ( " mm )
12:28 am 00:28 Cloudy with Light Snow 28 -2 25 -4 86 86 W 15 24 29.77 1008 3 5 0.00 0.00
12:35 am 00:35 Cloudy with Light Snow 28 -2.2 24 -4.4 85 85 W 18 30 29.77 1008 2 3 0.00 0.03
12:53 am 00:53 Cloudy with Light Snow 27 -2.8 26 -3.3 96 96 W 15 24 29.72 1007 1 2 0.01 0.25
1:04 am 01:04 Mostly Cloudy with Light Snow 27 -3 27 -3 100 100 W 18 30 29.80 1009 1 2 0.00 0.00
1:13 am 01:13 Mostly Cloudy with Light Snow 27 -2.8 26 -3.3 96 96 W 16 26 29.80 1009 1 1 0.01 0.25
1:25 am 01:25 Mostly Cloudy with Light Snow 27 -2.8 26 -3.3 96 96 WSW 15 24 29.80 1009 1 2 0.01 0.25
1:45 am 01:45 Cloudy with Light Snow 28 -2.2 26 -3.3 92 92 W 18 30 29.77 1008 2 2 0.02 0.51
1:53 am 01:53 Cloudy with Light Snow 28 -2.2 25 -3.9 88 88 W 17 28 29.73 1007 3 5 0.02 0.51
2:16 am 02:16 Cloudy 28 -2 23 -5 80 80 W 18 30 29.77 1008 10 16 0.00 0.00
2:37 am 02:37 Cloudy 29 -1.7 22 -5.6 75 75 W 28 44 29.77 1008 10 16 0.00 0.03
2:53 am 02:53 Windy with Snow Likely 28 -2.2 23 -5 81 81 W 24 39 29.73 1007 3 5 0.00 0.03
3:06 am 03:06 Cloudy with Light Snow 27 -3 25 -4 93 93 WNW 18 30 29.83 1010 3 4 0.00 0.00
3:20 am 03:20 Windy with Snow Likely 27 -3 25 -4 93 93 NW 22 35 29.83 1010 3 5 0.00 0.00
3:29 am 03:29 Cloudy with Light Snow 26 -3.3 23 -5 88 88 WNW 16 26 29.83 1010 3 5 0.00 0.03
3:38 am 03:38 Cloudy with Light Snow 27 -3 23 -5 86 86 WNW 16 26 29.83 1010 3 4 0.00 0.00
3:53 am 03:53 Cloudy with Light Snow 26 -3.3 22 -5.6 84 84 WNW 16 26 29.76 1008 5 8 0.00 0.03
4:53 am 04:53 Cloudy 25 -3.9 21 -6.1 85 85 WNW 12 19 29.79 1009 10 16 0.00 0.03
5:35 am 05:35 Cloudy with Light Snow 25 -3.9 21 -6.1 85 85 WNW 9 15 29.85 1011 3 4 0.00 0.03
5:49 am 05:49 Cloudy with Light Snow 25 -4 21 -6 86 86 WNW 10 17 29.85 1011 3 5 0.00 0.03
5:53 am 05:53 Cloudy with Mist and Fog 24 -4.4 22 -5.6 91 91 WNW 9 15 29.82 1010 3 5 0.00 0.03
6:53 am 06:53 Cloudy 24 -4.4 20 -6.7 84 84 W 7 11 29.83 1010 10 16 0.00 0.00
7:53 am 07:53 Cloudy 24 -4.4 19 -7.2 81 81 W 6 9 29.85 1011 10 16 0.00 0.00
8:40 am 08:40 Cloudy 25 -4 18 -8 74 74 NW 10 17 29.88 1012 10 16 0.00 0.00
8:53 am 08:53 Cloudy 24 -4.4 16 -8.9 71 71 N 15 24 29.88 1012 10 16 0.00 0.00
9:21 am 09:21 Cloudy 24 -4.4 14 -10 65 65 NNW 9 15 29.94 1014 10 16 0.00 0.00
9:53 am 09:53 Cloudy 24 -4.4 14 -10 65 65 NNW 12 19 29.90 1012 10 16 0.00 0.00
10:53 am 10:53 Cloudy 25 -3.9 14 -10 63 63 N 9 15 29.91 1013 10 16 0.00 0.00
11:12 am 11:12 Mostly Cloudy 25 -4 14 -10 63 63 WNW 12 19 29.97 1015 10 16 0.00 0.00
11:53 am 11:53 Cloudy 24 -4.4 14 -10 65 65 NNW 12 19 29.91 1013 10 16 0.00 0.00
12:33 pm 12:33 Cloudy 24 -4.4 14 -10 65 65 NW 8 13 29.97 1015 9 14 0.00 0.00
12:53 pm 12:53 Cloudy with Light Snow 24 -4.4 15 -9.4 68 68 N 12 19 29.91 1013 6 10 0.00 0.03
1:53 pm 13:53 Cloudy 24 -4.4 13 -10.6 62 62 NNW 10 17 29.90 1013 10 16 0.00 0.03
2:30 pm 14:30 Cloudy 25 -4 12 -11 59 59 N 12 19 29.94 1014 10 16 0.00 0.00
2:53 pm 14:53 Cloudy 24 -4.4 13 -10.6 62 62 N 10 17 29.89 1012 10 16 0.00 0.00
3:02 pm 15:02 Mostly Cloudy 25 -4 12 -11 59 59 N 9 15 29.94 1014 10 16 0.00 0.00
3:53 pm 15:53 Cloudy 24 -4.4 12 -11.1 60 60 N 12 19 29.89 1012 10 16 0.00 0.00
4:53 pm 16:53 Cloudy 23 -5 10 -12.2 57 57 N 6 9 29.90 1013 10 16 0.00 0.00
5:53 pm 17:53 Cloudy 22 -5.6 11 -11.7 63 63 NNE 3 6 29.90 1013 10 16 0.00 0.00
6:53 pm 18:53 Cloudy with Haze 20 -6.7 15 -9.4 81 81 NNW 3 6 29.90 1012 5 8 0.00 0.00
7:53 pm 19:53 Cloudy with Light Snow 20 -6.7 16 -8.9 85 85 Calm 29.89 1012 6 10 0.00 0.03
8:14 pm 20:14 Cloudy with Light Snow 19 -7 18 -8 93 93 NW 5 7 29.97 1015 3 4 0.00 0.00
8:38 pm 20:38 Cloudy with Light Snow 19 -7 18 -8 93 93 NW 5 7 29.94 1014 2 3 0.00 0.00
8:53 pm 20:53 Cloudy with Light Snow 20 -6.7 16 -8.9 85 85 N 9 15 29.89 1012 2 3 0.01 0.25
9:06 pm 21:06 Cloudy with Light Snow 19 -7 16 -9 86 86 NNE 13 20 29.97 1015 3 4 0.00 0.00
9:15 pm 21:15 Cloudy with Light Snow 19 -7.2 15 -9.4 84 84 NNE 12 19 29.97 1015 2 3 0.00 0.03
9:36 pm 21:36 Cloudy with Light Snow 18 -8 14 -10 86 86 NE 12 19 29.97 1015 2 3 0.00 0.00
9:43 pm 21:43 Cloudy with Light Snow 18 -7.8 14 -10 84 84 NNE 9 15 29.97 1015 3 4 0.01 0.25
9:53 pm 21:53 Cloudy with Light Snow 18 -7.8 14 -10 84 84 NNE 13 20 29.89 1012 3 5 0.01 0.25
10:15 pm 22:15 Cloudy with Light Snow 18 -7.8 14 -10 84 84 NNE 10 17 29.97 1015 2 3 0.00 0.03
10:24 pm 22:24 Cloudy with Light Snow 18 -8 14 -10 86 86 NE 10 17 29.97 1015 2 3 0.00 0.00
10:34 pm 22:34 Cloudy with Light Snow 18 -8 12 -11 79 79 NE 12 19 29.94 1014 2 3 0.00 0.00
10:41 pm 22:41 Cloudy with Light Snow 17 -8.3 14 -10 88 88 NE 9 15 29.94 1014 2 3 0.01 0.25
10:53 pm 22:53 Cloudy with Light Snow 17 -8.3 14 -10 88 88 NE 9 15 29.89 1012 2 3 0.01 0.25
11:36 pm 23:36 Cloudy with Light Snow 16 -9 12 -11 86 86 NNE 13 20 29.94 1014 2 3 0.00 0.00
11:53 pm 23:53 Cloudy with Light Snow 16 -8.9 13 -10.6 88 88 NE 9 15 29.89 1012 2 3 0.02 0.51

Powered by AerisWeather